Columbus, MS

3:01 AM CST on December 05, 2016 (GMT -0600)
Columbus Air Force Base

Weather History for KCBM - January, 2014

Change the Weather History Date:

Tuesday, January 14, 2014

  Actual Average Record
Temperature  
Mean Temperature 46 °F -  
Max Temperature 61 °F 51 °F 62 °F (2002)
Min Temperature 31 °F 33 °F 15 °F (2011)
Degree Days  
Heating Degree Days 19    
Moisture  
Dew Point 35 °F    
Average Humidity 66    
Maximum Humidity 99    
Minimum Humidity 29    
Precipitation  
Precipitation 0.00 in - - ()
Sea Level Pressure  
Sea Level Pressure 30.02 in    
Wind  
Wind Speed 5 mph (WSW)    
Max Wind Speed 13 mph    
Max Gust Speed -    
Visibility 10 miles    
Events      
Averages and records for this station are not official NWS values.
T = Trace of Precipitation, MM = Missing Value Source: NWS Daily Summary

Daily Weather History Graph

Daily Weather History Graph

Search for Another Location

Airport or City:

Trip Planner

Search our weather history database for the weather conditions in past years. The results will help you decide how hot, cold, wet, or windy it might be!

Date:

Astronomy

Jan. 14, 2014 Rise Set
Actual Time 6:58 AM CST 5:07 PM CST
Civil Twilight 6:31 AM CST 5:34 PM CST
Nautical Twilight 6:00 AM CST 6:05 PM CST
Astronomical Twilight 5:30 AM CST 6:35 PM CST
Moon 4:11 PM CST (1/14) 5:34 AM CST (1/14)
Length of Visible Light 11h 03m
Length of Day
10h 09m
Waxing Gibbous, 98% of the Moon is Illuminated
Jan 14
Waxing Gibbous
Jan 15
Full
Jan 23
Last Quarter
Jan 30
New
Feb 6
First Quarter

Hourly Weather History & Observations

Time (CST) Temp. Windchill Dew Point Humidity Pressure Visibility Wind Dir Wind Speed Gust Speed Precip Events Conditions
12:58 AM 46.9 °F - 41.0 °F 80% 29.94 in 10.0 mi NW 8.1 mph - N/A   Clear
1:58 AM 43.0 °F 39.5 °F 38.5 °F 84% 29.95 in 10.0 mi NW 5.8 mph - N/A   Clear
2:58 AM 41.4 °F 37.6 °F 37.0 °F 85% 29.97 in 10.0 mi NW 5.8 mph - N/A   Clear
3:58 AM 39.4 °F 35.2 °F 35.8 °F 87% 29.98 in 10.0 mi NW 5.8 mph - N/A   Clear
4:58 AM 38.7 °F 34.3 °F 34.7 °F 86% 29.99 in 10.0 mi NNW 5.8 mph - N/A   Clear
5:58 AM 34.5 °F - 32.5 °F 92% 30.01 in 10.0 mi Calm Calm - N/A   Clear
6:58 AM 31.8 °F - 30.7 °F 96% 30.04 in 10.0 mi West 1.2 mph - N/A   Clear
7:58 AM 35.1 °F - 34.7 °F 99% 30.05 in 10.0 mi Calm Calm - N/A   Clear
8:58 AM 43.9 °F 42.3 °F 37.2 °F 77% 30.06 in 10.0 mi WSW 3.5 mph - N/A   Clear
9:58 AM 49.1 °F - 38.8 °F 68% 30.06 in 10.0 mi SSW 1.2 mph - N/A   Clear
10:58 AM 54.1 °F - 36.9 °F 52% 30.05 in 10.0 mi SSE 4.6 mph - N/A   Clear
11:58 AM 56.8 °F - 37.2 °F 48% 30.03 in 10.0 mi South 5.8 mph - N/A   Clear
12:58 PM 58.6 °F - 32.0 °F 37% 30.00 in 10.0 mi SW 5.8 mph - N/A   Clear
1:58 PM 60.8 °F - 31.6 °F 33% 29.99 in 10.0 mi SW 8.1 mph - N/A   Clear
2:58 PM 61.7 °F - 32.0 °F 33% 29.99 in 10.0 mi South 10.4 mph - N/A   Clear
3:58 PM 61.2 °F - 28.4 °F 29% 30.00 in 10.0 mi South 5.8 mph - N/A   Clear
4:58 PM 56.8 °F - 30.6 °F 37% 30.00 in 10.0 mi South 2.3 mph - N/A   Clear
5:58 PM 46.9 °F - 32.0 °F 56% 30.01 in 10.0 mi South 3.5 mph - N/A   Clear
6:58 PM 43.7 °F - 35.4 °F 73% 30.04 in 10.0 mi Calm Calm - N/A   Clear
7:58 PM 41.7 °F - 35.6 °F 79% 30.06 in 10.0 mi Calm Calm - N/A   Overcast
8:58 PM 40.5 °F - 36.3 °F 85% 30.06 in 9.0 mi South 1.2 mph - N/A   Overcast
9:58 PM 48.7 °F - 34.3 °F 58% 30.07 in 10.0 mi NW 8.1 mph - N/A   Overcast
10:58 PM 48.6 °F - 34.3 °F 58% 30.09 in 10.0 mi NW 12.7 mph - N/A   Overcast
11:58 PM 47.8 °F - 35.2 °F 62% 30.08 in 10.0 mi NW 9.2 mph - N/A   Scattered Clouds